Weather History for Taos, NM

Change the Weather History Date:

Saturday, March 1, 2014

  Actual Average Record
Temperature  
Mean Temperature 39 °F -  
Max Temperature 46 °F 43 °F 62 °F (1999)
Min Temperature 32 °F 17 °F 3 °F (1998)
Degree Days  
Heating Degree Days 26    
Moisture  
Dew Point 29 °F    
Average Humidity 73    
Maximum Humidity 93    
Minimum Humidity 49    
Precipitation  
Precipitation 0.34 in - - ()
Sea Level Pressure  
Sea Level Pressure 29.97 in    
Wind  
Wind Speed 8 mph (South)    
Max Wind Speed 26 mph    
Max Gust Speed 40 mph    
Visibility 9 miles    
Events      
Averages and records for this station are not official NWS values.
T = Trace of Precipitation, MM = Missing Value Source: NWS Daily Summary

Daily Weather History Graph

Daily Weather History Graph

Search for Another Location

Airport:

Trip Planner

Search our weather history database for the weather conditions in past years. The results will help you decide how hot, cold, wet, or windy it might be!

Date:

Astronomy

Mar. 01, 2014 Rise Set
Actual Time 6:33 AM MST 5:57 PM MST
Civil Twilight 6:07 AM MST 6:23 PM MST
Nautical Twilight 5:37 AM MST 6:53 PM MST
Astronomical Twilight 5:07 AM MST 7:23 PM MST
Moon 6:30 AM MST (3/1) 6:45 PM MST (3/1)
Length of Visible Light 12h 16m
Length of Day
11h 24m
New Moon, 0% of the Moon is Illuminated
Mar 1
New Moon
Mar 8
First Quarter
Mar 16
Full
Mar 23
Last Quarter
Mar 30
New

Hourly Weather History & Observations

Time (MST) Temp. Windchill Dew Point Humidity Pressure Visibility Wind Dir Wind Speed Gust Speed Precip Events Conditions
12:15 AM 37.4 °F 31.4 °F 26.6 °F 65% 29.99 in 10.0 mi SE 8.1 mph - N/A   Overcast
12:35 AM 37.4 °F 32.1 °F 26.6 °F 65% 29.98 in 10.0 mi SE 6.9 mph - N/A   Overcast
12:55 AM 37.4 °F - 26.6 °F 65% 29.98 in 10.0 mi Calm Calm - N/A   Overcast
1:15 AM 39.2 °F 34.2 °F 26.6 °F 61% 29.98 in 10.0 mi SSE 6.9 mph - N/A   Overcast
1:35 AM 37.4 °F 32.8 °F 26.6 °F 65% 29.97 in 10.0 mi South 5.8 mph - N/A   Overcast
1:55 AM 37.4 °F 33.8 °F 26.6 °F 65% 29.96 in 10.0 mi SSE 4.6 mph - N/A   Overcast
2:15 AM 35.6 °F 30.7 °F 26.6 °F 70% 29.96 in 10.0 mi SSE 5.8 mph - N/A   Overcast
2:55 AM 33.8 °F 27.7 °F 26.6 °F 75% 29.95 in 10.0 mi SE 6.9 mph - N/A   Mostly Cloudy
3:15 AM 33.8 °F 28.6 °F 26.6 °F 75% 29.94 in 10.0 mi SE 5.8 mph - N/A   Overcast
3:35 AM 33.8 °F 28.6 °F 26.6 °F 75% 29.94 in 10.0 mi East 5.8 mph - N/A   Mostly Cloudy
3:55 AM 35.6 °F - 26.6 °F 70% 29.95 in 10.0 mi Calm Calm - N/A   Scattered Clouds
4:15 AM 35.6 °F - 24.8 °F 65% 29.95 in 10.0 mi Calm Calm - N/A   Overcast
4:35 AM 37.4 °F - 26.6 °F 65% 29.94 in 10.0 mi Calm Calm - N/A   Overcast
4:55 AM 41.0 °F - 24.8 °F 53% 29.94 in 10.0 mi Calm Calm - N/A   Overcast
5:15 AM 42.8 °F 38.0 °F 24.8 °F 49% 29.94 in 10.0 mi South 8.1 mph - N/A   Overcast
5:35 AM 41.0 °F 36.4 °F 24.8 °F 53% 29.94 in 10.0 mi South 6.9 mph - N/A   Overcast
5:55 AM 39.2 °F 33.6 °F 24.8 °F 56% 29.94 in 10.0 mi South 8.1 mph - N/A   Overcast
6:15 AM 41.0 °F 37.1 °F 24.8 °F 53% 29.94 in 10.0 mi South 5.8 mph - N/A   Overcast
6:35 AM 41.0 °F 36.4 °F 24.8 °F 53% 29.94 in 10.0 mi SSW 6.9 mph - N/A   Overcast
6:55 AM 41.0 °F 35.8 °F 24.8 °F 53% 29.94 in 10.0 mi SSW 8.1 mph - N/A   Overcast
7:15 AM 42.8 °F 37.5 °F 24.8 °F 49% 29.94 in 10.0 mi SW 9.2 mph - N/A   Overcast
7:35 AM 42.8 °F 36.2 °F 26.6 °F 53% 29.94 in 10.0 mi SSW 12.7 mph - N/A   Overcast
7:55 AM 44.6 °F 37.4 °F 26.6 °F 49% 29.95 in 10.0 mi SW 16.1 mph - N/A   Overcast
8:15 AM 44.6 °F 37.2 °F 26.6 °F 49% 29.96 in 10.0 mi SW 17.3 mph 24.2 mph N/A   Overcast
8:35 AM 44.6 °F 38.1 °F 26.6 °F 49% 29.96 in 10.0 mi SW 13.8 mph 23.0 mph N/A   Overcast
8:55 AM 44.6 °F 36.9 °F 26.6 °F 49% 29.97 in 10.0 mi SW 18.4 mph 21.9 mph N/A   Overcast
9:15 AM 44.6 °F 37.2 °F 26.6 °F 49% 29.97 in 10.0 mi SW 17.3 mph 21.9 mph N/A   Overcast
9:35 AM 46.4 °F 39.0 °F 28.4 °F 50% 29.96 in 10.0 mi SW 19.6 mph - N/A   Overcast
9:55 AM 44.6 °F 39.2 °F 32.0 °F 61% 29.97 in 10.0 mi SW 10.4 mph - N/A   Overcast
10:15 AM 46.4 °F 39.2 °F 30.2 °F 53% 29.96 in 5.0 mi SW 18.4 mph 24.2 mph N/A   Overcast
10:35 AM 42.8 °F 33.8 °F 32.0 °F 66% 29.97 in 10.0 mi SW 21.9 mph 29.9 mph N/A   Overcast
10:55 AM 44.6 °F 37.8 °F 32.0 °F 61% 29.96 in 10.0 mi SW 15.0 mph 19.6 mph N/A   Overcast
11:15 AM 44.6 °F 35.9 °F 32.0 °F 61% 29.94 in 10.0 mi SW 23.0 mph 27.6 mph N/A   Overcast
11:35 AM 44.6 °F 37.4 °F 33.8 °F 66% 29.94 in 10.0 mi SW 16.1 mph - N/A   Mostly Cloudy
11:55 AM 46.4 °F 37.7 °F 32.0 °F 57% 29.92 in 10.0 mi SW 26.5 mph 34.5 mph N/A   Overcast
12:15 PM 46.4 °F 38.1 °F 35.6 °F 66% 29.92 in 10.0 mi SW 24.2 mph 40.3 mph N/A   Mostly Cloudy
12:35 PM 42.8 °F 34.3 °F 35.6 °F 76% 29.94 in 10.0 mi SW 19.6 mph 25.3 mph N/A   Overcast
12:55 PM 42.8 °F 35.1 °F 35.6 °F 76% 29.94 in 10.0 mi WSW 16.1 mph 20.7 mph N/A   Overcast
1:15 PM 39.2 °F 30.2 °F 33.8 °F 81% 29.96 in 5.0 mi West 17.3 mph 31.1 mph 0.05 in   Overcast
1:35 PM 37.4 °F 31.4 °F 32.0 °F 81% 29.96 in 10.0 mi NW 8.1 mph - 0.10 in   Overcast
1:55 PM 37.4 °F 33.8 °F 33.8 °F 87% 29.96 in 7.0 mi NW 4.6 mph - 0.12 in   Overcast
2:15 PM 37.4 °F 30.8 °F 33.8 °F 87% 29.97 in 10.0 mi ENE 9.2 mph - 0.01 in   Overcast
2:35 PM 35.6 °F 30.7 °F 32.0 °F 87% 29.97 in 4.0 mi East 5.8 mph - 0.04 in   Overcast
2:55 PM 33.8 °F 28.6 °F 30.2 °F 87% 29.97 in 1.2 mi SE 5.8 mph - 0.06 in   Overcast
3:15 PM 32.0 °F 27.5 °F 30.2 °F 93% 29.98 in 0.8 mi SSE 4.6 mph - N/A   Overcast
3:35 PM 32.0 °F 25.6 °F 30.2 °F 93% 29.97 in 1.2 mi SE 6.9 mph - N/A   Overcast
3:55 PM 32.0 °F 25.6 °F 30.2 °F 93% 29.98 in 1.2 mi South 6.9 mph - N/A   Overcast
4:15 PM 32.0 °F 26.4 °F 30.2 °F 93% 29.99 in 1.2 mi South 5.8 mph - N/A   Overcast
4:35 PM 32.0 °F 25.6 °F 30.2 °F 93% 29.98 in 3.0 mi SE 6.9 mph - N/A   Overcast
4:55 PM 32.0 °F 23.6 °F 30.2 °F 93% 29.97 in 10.0 mi SE 10.4 mph - N/A   Overcast
5:15 PM 32.0 °F 23.6 °F 30.2 °F 93% 29.98 in 8.0 mi ESE 10.4 mph - 0.01 in   Mostly Cloudy
5:35 PM 32.0 °F 24.2 °F 30.2 °F 93% 29.99 in 9.0 mi ESE 9.2 mph - 0.03 in   Overcast
5:55 PM 33.8 °F 28.6 °F 30.2 °F 87% 30.00 in 8.0 mi SSE 5.8 mph - 0.04 in   Overcast
6:15 PM 33.8 °F 27.0 °F 30.2 °F 87% 30.00 in 10.0 mi South 8.1 mph - 0.02 in   Overcast
6:35 PM 33.8 °F 28.6 °F 30.2 °F 87% 30.00 in 10.0 mi SSE 5.8 mph - 0.04 in   Overcast
6:55 PM 33.8 °F 27.7 °F 30.2 °F 87% 30.01 in 10.0 mi ESE 6.9 mph - 0.05 in   Overcast
7:15 PM 33.8 °F 27.7 °F 30.2 °F 87% 30.01 in 10.0 mi East 6.9 mph - 0.01 in   Overcast
7:35 PM 33.8 °F 27.0 °F 30.2 °F 87% 30.01 in 9.0 mi East 8.1 mph - 0.02 in   Overcast
7:55 PM 33.8 °F 28.6 °F 30.2 °F 87% 30.01 in 10.0 mi ENE 5.8 mph - 0.03 in   Overcast
8:15 PM 33.8 °F - 30.2 °F 87% 30.01 in 10.0 mi Calm Calm - 0.01 in   Overcast
8:35 PM 33.8 °F - 30.2 °F 87% 30.01 in 10.0 mi Calm Calm - 0.01 in   Overcast
8:55 PM 33.8 °F 30.8 °F 30.2 °F 87% 30.01 in 7.0 mi North 3.5 mph - 0.02 in   Overcast
9:15 PM 33.8 °F 29.6 °F 30.2 °F 87% 30.01 in 8.0 mi NNW 4.6 mph - 0.01 in   Overcast
9:35 PM 33.8 °F 30.8 °F 30.2 °F 87% 30.01 in 10.0 mi NNW 3.5 mph - 0.01 in   Overcast
9:55 PM 33.8 °F - 32.0 °F 93% 30.00 in 10.0 mi Calm Calm - 0.01 in   Overcast
10:15 PM 33.8 °F - 30.2 °F 87% 29.99 in 10.0 mi Calm Calm - 0.01 in   Overcast
10:35 PM 33.8 °F - 30.2 °F 87% 29.99 in 10.0 mi Calm Calm - 0.01 in   Overcast
10:55 PM 33.8 °F - 30.2 °F 87% 30.00 in 10.0 mi Calm Calm - 0.01 in   Overcast
11:15 PM 33.8 °F - 30.2 °F 87% 29.98 in 10.0 mi Calm Calm - N/A   Overcast
11:35 PM 33.8 °F - 30.2 °F 87% 29.98 in 10.0 mi Calm Calm - N/A   Overcast
11:55 PM 33.8 °F - 32.0 °F 93% 29.98 in 10.0 mi Calm Calm - N/A   Overcast